map of MAD home
MAD - Airport
Location
City:  Madrid, Madrid, Spain
Name:Adolfo Suárez Madrid-Barajas International Airport
ICAO:LEMD
IATA:MAD

Details
Type:Airport (Aerodrome, Airfield)
Use:Public/Civil, International (customs port of entry)
Latitude:40°29'37"N (40.493556)
Longitude:3°34'00"W (-3.566763)
Datum:WGS 1984
Elevation:2000 ft (610 m)
Variation:0.61°W (WMM2015 magnetic declination)
0.12° annual change
Runways:4
Longest:14272 × 197 ft (4350 × 60 m), paved

Time
Time Zone:UTC+1 (DST+2)
Local Time:

Weather
METAR:LEMD 210500Z 00000KT CAVOK 19/09 Q1018 NOSIG
TAF:LEMD 202300Z 2100/2206 02005KT CAVOK TX35/2115Z TN18/2106Z PROB30
TEMPO 2100/2102 15008KT PROB30
TEMPO 2111/2117 16008G18KT PROB30
TEMPO 2115/2119 FEW040TCU
TEMPO 2117/2119 34015G25KT

Related Locations
Nearby:
Farthest:NZPO: 12430 mi / 20005 km
Porangahau, HKB, NZ

Find:

   beyond  
but within

Other Information
Maps:
NOTAMs:
Links:
Sources:

  
  • flag of Spain
  • flag of Madrid
  

Sectional Chart

Flight Planning
at skyvector.com

Satellite Image

Google Maps Satellite view

 

Copyright © 2004-2018 Karl L. Swartz. All rights reserved.
The Great Circle Mapper name and logo are trademarks of the Great Circle Mapper.
All other trademarks mentioned herein belong to their respective owners.
Please see credits for attibutions and further copyright information.

  Follow gcmap on Facebook Follow gcmap on Twitter Follow gcmap on Google+ GCmap on LinkedIn

hCard Microformat

Geo Microformat